owner,sensor,date,latitude,longitude,vertical_datum,sea_water_practical_salinity,qcFlag 
TCOON,ioos:station:TCOON:170:1,2016-01-01T01:30:00Z,27.2970,-97.4049,0.0,36.8,1111122 
TCOON,ioos:station:TCOON:170:1,2016-01-01T03:30:00Z,27.2970,-97.4049,0.0,36.7,1111122 
TCOON,ioos:station:TCOON:170:1,2016-01-01T04:30:00Z,27.2970,-97.4049,0.0,36.7,1111122 
TCOON,ioos:station:TCOON:170:1,2016-01-01T05:30:00Z,27.2970,-97.4049,0.0,36.7,1111122 
TCOON,ioos:station:TCOON:170:1,2016-01-01T06:30:00Z,27.2970,-97.4049,0.0,36.7,1111122 
TCOON,ioos:station:TCOON:170:1,2016-01-01T07:30:00Z,27.2970,-97.4049,0.0,36.6,1111122 
TCOON,ioos:station:TCOON:170:1,2016-01-01T08:30:00Z,27.2970,-97.4049,0.0,36.6,1111122 
TCOON,ioos:station:TCOON:170:1,2016-01-01T09:30:00Z,27.2970,-97.4049,0.0,36.5,1111122 
TCOON,ioos:station:TCOON:170:1,2016-01-01T10:30:00Z,27.2970,-97.4049,0.0,36.5,1111122 
TCOON,ioos:station:TCOON:170:1,2016-01-01T11:30:00Z,27.2970,-97.4049,0.0,36.4,1111122 
TCOON,ioos:station:TCOON:170:1,2016-01-01T12:30:00Z,27.2970,-97.4049,0.0,36.4,1111122 
TCOON,ioos:station:TCOON:170:1,2016-01-01T13:30:00Z,27.2970,-97.4049,0.0,36.5,1111122 
TCOON,ioos:station:TCOON:170:1,2016-01-01T14:30:00Z,27.2970,-97.4049,0.0,36.4,1111122 
TCOON,ioos:station:TCOON:170:1,2016-01-01T15:30:00Z,27.2970,-97.4049,0.0,36.4,1111122 
TCOON,ioos:station:TCOON:170:1,2016-01-01T16:30:00Z,27.2970,-97.4049,0.0,36.4,1111122 
TCOON,ioos:station:TCOON:170:1,2016-01-01T17:30:00Z,27.2970,-97.4049,0.0,36.2,1111122 
TCOON,ioos:station:TCOON:170:1,2016-01-01T18:30:00Z,27.2970,-97.4049,0.0,36.0,1111122 
TCOON,ioos:station:TCOON:170:1,2016-01-02T21:30:00Z,27.2970,-97.4049,0.0,34.0,1111122 
TCOON,ioos:station:TCOON:170:1,2016-01-02T22:30:00Z,27.2970,-97.4049,0.0,34.0,1111122 
TCOON,ioos:station:TCOON:170:1,2016-01-02T23:30:00Z,27.2970,-97.4049,0.0,33.9,1111122 
TCOON,ioos:station:TCOON:170:1,2016-01-03T00:30:00Z,27.2970,-97.4049,0.0,34.0,1111122 
TCOON,ioos:station:TCOON:170:1,2016-01-03T01:30:00Z,27.2970,-97.4049,0.0,34.0,1111122 
TCOON,ioos:station:TCOON:170:1,2016-01-03T02:30:00Z,27.2970,-97.4049,0.0,34.0,1111122 
TCOON,ioos:station:TCOON:170:1,2016-01-03T03:30:00Z,27.2970,-97.4049,0.0,34.2,1111122 
TCOON,ioos:station:TCOON:170:1,2016-01-03T04:30:00Z,27.2970,-97.4049,0.0,34.1,1111122 
TCOON,ioos:station:TCOON:170:1,2016-01-03T05:30:00Z,27.2970,-97.4049,0.0,34.1,1111122 
TCOON,ioos:station:TCOON:170:1,2016-01-03T06:30:00Z,27.2970,-97.4049,0.0,34.0,1111122 
TCOON,ioos:station:TCOON:170:1,2016-01-03T07:30:00Z,27.2970,-97.4049,0.0,34.0,1111122 
TCOON,ioos:station:TCOON:170:1,2016-01-03T08:30:00Z,27.2970,-97.4049,0.0,34.0,1111122 
TCOON,ioos:station:TCOON:170:1,2016-01-03T09:30:00Z,27.2970,-97.4049,0.0,34.0,1111122 
TCOON,ioos:station:TCOON:170:1,2016-01-03T10:30:00Z,27.2970,-97.4049,0.0,34.1,1111122 
TCOON,ioos:station:TCOON:170:1,2016-01-03T11:30:00Z,27.2970,-97.4049,0.0,34.1,1111122 
TCOON,ioos:station:TCOON:170:1,2016-01-03T12:30:00Z,27.2970,-97.4049,0.0,34.0,1111122 
TCOON,ioos:station:TCOON:170:1,2016-01-03T13:30:00Z,27.2970,-97.4049,0.0,34.0,1111122 
TCOON,ioos:station:TCOON:170:1,2016-01-03T14:30:00Z,27.2970,-97.4049,0.0,34.1,1111122 
TCOON,ioos:station:TCOON:170:1,2016-01-03T15:30:00Z,27.2970,-97.4049,0.0,34.1,1111122 
TCOON,ioos:station:TCOON:170:1,2016-01-03T16:30:00Z,27.2970,-97.4049,0.0,34.3,1111122 
TCOON,ioos:station:TCOON:170:1,2016-01-03T17:30:00Z,27.2970,-97.4049,0.0,34.4,1111122 
TCOON,ioos:station:TCOON:170:1,2016-01-03T18:30:00Z,27.2970,-97.4049,0.0,34.4,1111122 
TCOON,ioos:station:TCOON:170:1,2016-01-03T19:30:00Z,27.2970,-97.4049,0.0,34.5,1111122 
TCOON,ioos:station:TCOON:170:1,2016-01-03T20:30:00Z,27.2970,-97.4049,0.0,34.6,1111122 
TCOON,ioos:station:TCOON:170:1,2016-01-03T21:30:00Z,27.2970,-97.4049,0.0,34.6,1111122 
TCOON,ioos:station:TCOON:170:1,2016-01-03T22:30:00Z,27.2970,-97.4049,0.0,34.3,1111122 
TCOON,ioos:station:TCOON:170:1,2016-01-03T23:30:00Z,27.2970,-97.4049,0.0,34.4,1111122 
TCOON,ioos:station:TCOON:170:1,2016-01-04T00:30:00Z,27.2970,-97.4049,0.0,34.4,1111122 
TCOON,ioos:station:TCOON:170:1,2016-01-04T02:30:00Z,27.2970,-97.4049,0.0,34.2,1111122 
TCOON,ioos:station:TCOON:170:1,2016-01-04T04:00:00Z,27.2970,-97.4049,0.0,34.3,1111122 
TCOON,ioos:station:TCOON:170:1,2016-01-04T04:30:00Z,27.2970,-97.4049,0.0,34.3,1111122 
TCOON,ioos:station:TCOON:170:1,2016-01-04T05:30:00Z,27.2970,-97.4049,0.0,34.4,1111122 
TCOON,ioos:station:TCOON:170:1,2016-01-04T06:30:00Z,27.2970,-97.4049,0.0,34.4,1111122 
TCOON,ioos:station:TCOON:170:1,2016-01-04T07:30:00Z,27.2970,-97.4049,0.0,34.5,1111122 
TCOON,ioos:station:TCOON:170:1,2016-01-04T08:30:00Z,27.2970,-97.4049,0.0,34.5,1111122 
TCOON,ioos:station:TCOON:170:1,2016-01-04T09:30:00Z,27.2970,-97.4049,0.0,34.6,1111122 
TCOON,ioos:station:TCOON:170:1,2016-01-04T10:30:00Z,27.2970,-97.4049,0.0,34.5,1111122 
TCOON,ioos:station:TCOON:170:1,2016-01-04T11:30:00Z,27.2970,-97.4049,0.0,34.5,1111122 
TCOON,ioos:station:TCOON:170:1,2016-01-04T14:30:00Z,27.2970,-97.4049,0.0,34.6,1111122 
TCOON,ioos:station:TCOON:170:1,2016-01-04T15:30:00Z,27.2970,-97.4049,0.0,34.6,1111122 
TCOON,ioos:station:TCOON:170:1,2016-01-04T17:30:00Z,27.2970,-97.4049,0.0,34.6,1111122 
TCOON,ioos:station:TCOON:170:1,2016-01-04T18:30:00Z,27.2970,-97.4049,0.0,34.6,1111122 
TCOON,ioos:station:TCOON:170:1,2016-01-04T19:30:00Z,27.2970,-97.4049,0.0,34.6,1111122 
TCOON,ioos:station:TCOON:170:1,2016-01-04T20:30:00Z,27.2970,-97.4049,0.0,34.6,1111122 
TCOON,ioos:station:TCOON:170:1,2016-01-04T21:30:00Z,27.2970,-97.4049,0.0,34.6,1111122 
TCOON,ioos:station:TCOON:170:1,2016-01-04T22:30:00Z,27.2970,-97.4049,0.0,34.6,1111122 
TCOON,ioos:station:TCOON:170:1,2016-01-05T01:30:00Z,27.2970,-97.4049,0.0,34.8,1111122 
TCOON,ioos:station:TCOON:170:1,2016-01-05T02:30:00Z,27.2970,-97.4049,0.0,34.8,1111122 
TCOON,ioos:station:TCOON:170:1,2016-01-05T03:30:00Z,27.2970,-97.4049,0.0,34.7,1111122 
TCOON,ioos:station:TCOON:170:1,2016-01-05T11:30:00Z,27.2970,-97.4049,0.0,34.7,1111122 
TCOON,ioos:station:TCOON:170:1,2016-01-05T12:30:00Z,27.2970,-97.4049,0.0,34.7,1111122 
TCOON,ioos:station:TCOON:170:1,2016-01-05T13:30:00Z,27.2970,-97.4049,0.0,34.7,1111122 
TCOON,ioos:station:TCOON:170:1,2016-01-05T14:30:00Z,27.2970,-97.4049,0.0,34.7,1111122 
TCOON,ioos:station:TCOON:170:1,2016-01-05T15:30:00Z,27.2970,-97.4049,0.0,34.7,1111122 
TCOON,ioos:station:TCOON:170:1,2016-01-05T16:30:00Z,27.2970,-97.4049,0.0,34.7,1111122 
TCOON,ioos:station:TCOON:170:1,2016-01-06T15:30:00Z,27.2970,-97.4049,0.0,34.7,1111122 
TCOON,ioos:station:TCOON:170:1,2016-01-06T16:30:00Z,27.2970,-97.4049,0.0,34.6,1111122 
TCOON,ioos:station:TCOON:170:1,2016-01-06T17:30:00Z,27.2970,-97.4049,0.0,34.6,1111122 
TCOON,ioos:station:TCOON:170:1,2016-01-06T18:30:00Z,27.2970,-97.4049,0.0,34.6,1111122 
TCOON,ioos:station:TCOON:170:1,2016-01-06T19:30:00Z,27.2970,-97.4049,0.0,34.5,1111122 
TCOON,ioos:station:TCOON:170:1,2016-01-06T20:30:00Z,27.2970,-97.4049,0.0,34.6,1111122 
TCOON,ioos:station:TCOON:170:1,2016-01-06T22:30:00Z,27.2970,-97.4049,0.0,34.6,1111122 
TCOON,ioos:station:TCOON:170:1,2016-01-07T00:30:00Z,27.2970,-97.4049,0.0,34.7,1111122 
TCOON,ioos:station:TCOON:170:1,2016-01-07T01:30:00Z,27.2970,-97.4049,0.0,34.7,1111122 
TCOON,ioos:station:TCOON:170:1,2016-01-07T02:30:00Z,27.2970,-97.4049,0.0,34.7,1111122 
TCOON,ioos:station:TCOON:170:1,2016-01-07T03:30:00Z,27.2970,-97.4049,0.0,34.6,1111122 
TCOON,ioos:station:TCOON:170:1,2016-01-07T04:30:00Z,27.2970,-97.4049,0.0,34.6,1111122 
TCOON,ioos:station:TCOON:170:1,2016-01-07T05:30:00Z,27.2970,-97.4049,0.0,34.6,1111122 
TCOON,ioos:station:TCOON:170:1,2016-01-07T06:30:00Z,27.2970,-97.4049,0.0,34.6,1111122 
TCOON,ioos:station:TCOON:170:1,2016-01-07T07:30:00Z,27.2970,-97.4049,0.0,34.6,1111122 
TCOON,ioos:station:TCOON:170:1,2016-01-07T08:30:00Z,27.2970,-97.4049,0.0,34.6,1111122 
TCOON,ioos:station:TCOON:170:1,2016-01-07T09:30:00Z,27.2970,-97.4049,0.0,34.6,1111122 
TCOON,ioos:station:TCOON:170:1,2016-01-07T10:30:00Z,27.2970,-97.4049,0.0,34.6,1111122 
TCOON,ioos:station:TCOON:170:1,2016-01-07T11:30:00Z,27.2970,-97.4049,0.0,34.6,1111122 
TCOON,ioos:station:TCOON:170:1,2016-01-07T12:30:00Z,27.2970,-97.4049,0.0,34.6,1111122 
TCOON,ioos:station:TCOON:170:1,2016-01-07T13:30:00Z,27.2970,-97.4049,0.0,34.6,1111122 
TCOON,ioos:station:TCOON:170:1,2016-01-07T14:30:00Z,27.2970,-97.4049,0.0,34.6,1111122 
TCOON,ioos:station:TCOON:170:1,2016-01-07T15:30:00Z,27.2970,-97.4049,0.0,34.5,1111122 
TCOON,ioos:station:TCOON:170:1,2016-01-07T16:30:00Z,27.2970,-97.4049,0.0,34.5,1111122 
TCOON,ioos:station:TCOON:170:1,2016-01-07T17:30:00Z,27.2970,-97.4049,0.0,34.5,1111122 
TCOON,ioos:station:TCOON:170:1,2016-01-07T18:30:00Z,27.2970,-97.4049,0.0,34.4,1111122 
TCOON,ioos:station:TCOON:170:1,2016-01-07T19:30:00Z,27.2970,-97.4049,0.0,34.4,1111122 
TCOON,ioos:station:TCOON:170:1,2016-01-07T20:30:00Z,27.2970,-97.4049,0.0,34.4,1111122 
TCOON,ioos:station:TCOON:170:1,2016-01-07T21:30:00Z,27.2970,-97.4049,0.0,34.4,1111122 
TCOON,ioos:station:TCOON:170:1,2016-01-07T22:30:00Z,27.2970,-97.4049,0.0,34.4,1111122 
TCOON,ioos:station:TCOON:170:1,2016-01-07T23:30:00Z,27.2970,-97.4049,0.0,34.4,1111122 
TCOON,ioos:station:TCOON:170:1,2016-01-08T02:30:00Z,27.2970,-97.4049,0.0,34.4,1111122 
TCOON,ioos:station:TCOON:170:1,2016-01-08T06:30:00Z,27.2970,-97.4049,0.0,34.4,1111122 
TCOON,ioos:station:TCOON:170:1,2016-01-08T07:30:00Z,27.2970,-97.4049,0.0,34.5,1111122 
TCOON,ioos:station:TCOON:170:1,2016-01-08T08:30:00Z,27.2970,-97.4049,0.0,34.5,1111122 
TCOON,ioos:station:TCOON:170:1,2016-01-08T09:30:00Z,27.2970,-97.4049,0.0,34.4,1111122 
TCOON,ioos:station:TCOON:170:1,2016-01-08T11:30:00Z,27.2970,-97.4049,0.0,34.5,1111122 
TCOON,ioos:station:TCOON:170:1,2016-01-08T12:30:00Z,27.2970,-97.4049,0.0,34.3,1111122 
TCOON,ioos:station:TCOON:170:1,2016-01-08T13:30:00Z,27.2970,-97.4049,0.0,34.4,1111122 
TCOON,ioos:station:TCOON:170:1,2016-01-08T14:30:00Z,27.2970,-97.4049,0.0,34.4,1111122 
TCOON,ioos:station:TCOON:170:1,2016-01-08T15:30:00Z,27.2970,-97.4049,0.0,34.3,1111122 
TCOON,ioos:station:TCOON:170:1,2016-01-08T16:30:00Z,27.2970,-97.4049,0.0,34.3,1111122 
TCOON,ioos:station:TCOON:170:1,2016-01-08T17:30:00Z,27.2970,-97.4049,0.0,34.3,1111122 
TCOON,ioos:station:TCOON:170:1,2016-01-08T18:30:00Z,27.2970,-97.4049,0.0,34.3,1111122 
TCOON,ioos:station:TCOON:170:1,2016-01-08T19:30:00Z,27.2970,-97.4049,0.0,34.3,1111122 
TCOON,ioos:station:TCOON:170:1,2016-01-08T20:30:00Z,27.2970,-97.4049,0.0,34.4,1111122 
TCOON,ioos:station:TCOON:170:1,2016-01-08T21:30:00Z,27.2970,-97.4049,0.0,34.3,1111122 
TCOON,ioos:station:TCOON:170:1,2016-01-08T22:30:00Z,27.2970,-97.4049,0.0,34.2,1111122 
TCOON,ioos:station:TCOON:170:1,2016-01-08T23:30:00Z,27.2970,-97.4049,0.0,34.4,1111122 
TCOON,ioos:station:TCOON:170:1,2016-01-09T00:30:00Z,27.2970,-97.4049,0.0,34.4,1111122 
TCOON,ioos:station:TCOON:170:1,2016-01-09T01:30:00Z,27.2970,-97.4049,0.0,34.4,1111122 
TCOON,ioos:station:TCOON:170:1,2016-01-09T02:30:00Z,27.2970,-97.4049,0.0,34.4,1111122 
TCOON,ioos:station:TCOON:170:1,2016-01-09T03:30:00Z,27.2970,-97.4049,0.0,34.4,1111122 
TCOON,ioos:station:TCOON:170:1,2016-01-09T04:30:00Z,27.2970,-97.4049,0.0,34.3,1111122 
TCOON,ioos:station:TCOON:170:1,2016-01-09T05:30:00Z,27.2970,-97.4049,0.0,34.3,1111122 
TCOON,ioos:station:TCOON:170:1,2016-01-09T06:30:00Z,27.2970,-97.4049,0.0,34.3,1111122 
TCOON,ioos:station:TCOON:170:1,2016-01-09T07:30:00Z,27.2970,-97.4049,0.0,34.3,1111122 
TCOON,ioos:station:TCOON:170:1,2016-01-09T08:30:00Z,27.2970,-97.4049,0.0,34.2,1111122 
TCOON,ioos:station:TCOON:170:1,2016-01-09T09:30:00Z,27.2970,-97.4049,0.0,34.2,1111122 
TCOON,ioos:station:TCOON:170:1,2016-01-09T10:30:00Z,27.2970,-97.4049,0.0,34.2,1111122 
TCOON,ioos:station:TCOON:170:1,2016-01-09T11:30:00Z,27.2970,-97.4049,0.0,34.2,1111122 
TCOON,ioos:station:TCOON:170:1,2016-01-09T14:30:00Z,27.2970,-97.4049,0.0,34.3,1111122 
TCOON,ioos:station:TCOON:170:1,2016-01-09T15:30:00Z,27.2970,-97.4049,0.0,34.3,1111122 
TCOON,ioos:station:TCOON:170:1,2016-01-09T16:30:00Z,27.2970,-97.4049,0.0,34.3,1111122 
TCOON,ioos:station:TCOON:170:1,2016-01-09T17:30:00Z,27.2970,-97.4049,0.0,34.2,1111122 
TCOON,ioos:station:TCOON:170:1,2016-01-09T18:30:00Z,27.2970,-97.4049,0.0,34.1,1111122 
TCOON,ioos:station:TCOON:170:1,2016-01-09T19:30:00Z,27.2970,-97.4049,0.0,34.1,1111122 
TCOON,ioos:station:TCOON:170:1,2016-01-09T20:30:00Z,27.2970,-97.4049,0.0,34.0,1111122 
TCOON,ioos:station:TCOON:170:1,2016-01-09T21:30:00Z,27.2970,-97.4049,0.0,34.0,1111122 
TCOON,ioos:station:TCOON:170:1,2016-01-09T22:30:00Z,27.2970,-97.4049,0.0,34.0,1111122 
TCOON,ioos:station:TCOON:170:1,2016-01-09T23:30:00Z,27.2970,-97.4049,0.0,34.2,1111122 
TCOON,ioos:station:TCOON:170:1,2016-01-10T01:30:00Z,27.2970,-97.4049,0.0,34.3,1111122 
TCOON,ioos:station:TCOON:170:1,2016-01-10T02:30:00Z,27.2970,-97.4049,0.0,34.3,1111122 
TCOON,ioos:station:TCOON:170:1,2016-01-10T03:30:00Z,27.2970,-97.4049,0.0,34.3,1111122 
TCOON,ioos:station:TCOON:170:1,2016-01-10T04:30:00Z,27.2970,-97.4049,0.0,34.2,1111122 
TCOON,ioos:station:TCOON:170:1,2016-01-10T05:30:00Z,27.2970,-97.4049,0.0,34.2,1111122 
TCOON,ioos:station:TCOON:170:1,2016-01-10T06:30:00Z,27.2970,-97.4049,0.0,34.1,1111122 
TCOON,ioos:station:TCOON:170:1,2016-01-10T07:30:00Z,27.2970,-97.4049,0.0,33.8,1111122 
TCOON,ioos:station:TCOON:170:1,2016-01-10T08:30:00Z,27.2970,-97.4049,0.0,33.8,1111122 
TCOON,ioos:station:TCOON:170:1,2016-01-10T09:30:00Z,27.2970,-97.4049,0.0,33.5,1111122 
TCOON,ioos:station:TCOON:170:1,2016-01-10T12:30:00Z,27.2970,-97.4049,0.0,33.2,1111122 
TCOON,ioos:station:TCOON:170:1,2016-01-10T13:30:00Z,27.2970,-97.4049,0.0,33.0,1111122 
TCOON,ioos:station:TCOON:170:1,2016-01-10T14:30:00Z,27.2970,-97.4049,0.0,32.9,1111122 
TCOON,ioos:station:TCOON:170:1,2016-01-10T15:30:00Z,27.2970,-97.4049,0.0,33.1,1111122 
TCOON,ioos:station:TCOON:170:1,2016-01-10T16:30:00Z,27.2970,-97.4049,0.0,32.8,1111122 
TCOON,ioos:station:TCOON:170:1,2016-01-10T17:30:00Z,27.2970,-97.4049,0.0,32.8,1111122 
TCOON,ioos:station:TCOON:170:1,2016-01-10T18:30:00Z,27.2970,-97.4049,0.0,33.0,1111122 
TCOON,ioos:station:TCOON:170:1,2016-01-10T19:30:00Z,27.2970,-97.4049,0.0,32.9,1111122 
TCOON,ioos:station:TCOON:170:1,2016-01-10T20:30:00Z,27.2970,-97.4049,0.0,33.3,1111122 
TCOON,ioos:station:TCOON:170:1,2016-01-10T21:30:00Z,27.2970,-97.4049,0.0,33.3,1111122 
TCOON,ioos:station:TCOON:170:1,2016-01-10T22:30:00Z,27.2970,-97.4049,0.0,33.2,1111122 
TCOON,ioos:station:TCOON:170:1,2016-01-10T23:30:00Z,27.2970,-97.4049,0.0,33.1,1111122 
TCOON,ioos:station:TCOON:170:1,2016-01-11T00:30:00Z,27.2970,-97.4049,0.0,33.1,1111122 
TCOON,ioos:station:TCOON:170:1,2016-01-11T01:30:00Z,27.2970,-97.4049,0.0,33.2,1111122 
TCOON,ioos:station:TCOON:170:1,2016-01-11T02:30:00Z,27.2970,-97.4049,0.0,33.2,1111122 
TCOON,ioos:station:TCOON:170:1,2016-01-11T03:30:00Z,27.2970,-97.4049,0.0,33.3,1111122 
TCOON,ioos:station:TCOON:170:1,2016-01-11T04:30:00Z,27.2970,-97.4049,0.0,33.4,1111122 
TCOON,ioos:station:TCOON:170:1,2016-01-11T05:30:00Z,27.2970,-97.4049,0.0,33.5,1111122 
TCOON,ioos:station:TCOON:170:1,2016-01-11T06:30:00Z,27.2970,-97.4049,0.0,33.6,1111122 
TCOON,ioos:station:TCOON:170:1,2016-01-11T07:30:00Z,27.2970,-97.4049,0.0,33.7,1111122 
TCOON,ioos:station:TCOON:170:1,2016-01-11T08:30:00Z,27.2970,-97.4049,0.0,33.7,1111122 
TCOON,ioos:station:TCOON:170:1,2016-01-11T09:30:00Z,27.2970,-97.4049,0.0,33.7,1111122 
TCOON,ioos:station:TCOON:170:1,2016-01-11T10:30:00Z,27.2970,-97.4049,0.0,33.6,1111122 
TCOON,ioos:station:TCOON:170:1,2016-01-11T11:30:00Z,27.2970,-97.4049,0.0,33.6,1111122 
TCOON,ioos:station:TCOON:170:1,2016-01-11T12:30:00Z,27.2970,-97.4049,0.0,33.5,1111122 
TCOON,ioos:station:TCOON:170:1,2016-01-11T13:30:00Z,27.2970,-97.4049,0.0,33.7,1111122 
TCOON,ioos:station:TCOON:170:1,2016-01-11T14:30:00Z,27.2970,-97.4049,0.0,33.5,1111122 
TCOON,ioos:station:TCOON:170:1,2016-01-11T16:30:00Z,27.2970,-97.4049,0.0,33.4,1111122 
TCOON,ioos:station:TCOON:170:1,2016-01-11T17:30:00Z,27.2970,-97.4049,0.0,33.2,1111122 
TCOON,ioos:station:TCOON:170:1,2016-01-11T18:30:00Z,27.2970,-97.4049,0.0,33.1,1111122 
TCOON,ioos:station:TCOON:170:1,2016-01-11T19:30:00Z,27.2970,-97.4049,0.0,33.1,1111122 
TCOON,ioos:station:TCOON:170:1,2016-01-11T20:30:00Z,27.2970,-97.4049,0.0,33.1,1111122 
TCOON,ioos:station:TCOON:170:1,2016-01-11T21:30:00Z,27.2970,-97.4049,0.0,33.3,1111122 
TCOON,ioos:station:TCOON:170:1,2016-01-11T22:30:00Z,27.2970,-97.4049,0.0,33.5,1111122 
TCOON,ioos:station:TCOON:170:1,2016-01-11T23:30:00Z,27.2970,-97.4049,0.0,33.6,1111122 
TCOON,ioos:station:TCOON:170:1,2016-01-12T00:30:00Z,27.2970,-97.4049,0.0,33.5,1111122 
TCOON,ioos:station:TCOON:170:1,2016-01-12T01:30:00Z,27.2970,-97.4049,0.0,33.5,1111122 
TCOON,ioos:station:TCOON:170:1,2016-01-12T02:30:00Z,27.2970,-97.4049,0.0,33.5,1111122 
TCOON,ioos:station:TCOON:170:1,2016-01-12T03:30:00Z,27.2970,-97.4049,0.0,33.4,1111122 
TCOON,ioos:station:TCOON:170:1,2016-01-12T04:30:00Z,27.2970,-97.4049,0.0,33.4,1111122 
TCOON,ioos:station:TCOON:170:1,2016-01-12T05:30:00Z,27.2970,-97.4049,0.0,33.3,1111122 
TCOON,ioos:station:TCOON:170:1,2016-01-12T06:30:00Z,27.2970,-97.4049,0.0,33.2,1111122 
TCOON,ioos:station:TCOON:170:1,2016-01-12T07:30:00Z,27.2970,-97.4049,0.0,33.2,1111122 
TCOON,ioos:station:TCOON:170:1,2016-01-12T09:30:00Z,27.2970,-97.4049,0.0,33.2,1111122 
TCOON,ioos:station:TCOON:170:1,2016-01-12T10:30:00Z,27.2970,-97.4049,0.0,33.2,1111122 
TCOON,ioos:station:TCOON:170:1,2016-01-12T11:30:00Z,27.2970,-97.4049,0.0,33.3,1111122 
TCOON,ioos:station:TCOON:170:1,2016-01-12T12:30:00Z,27.2970,-97.4049,0.0,33.4,1111122 
TCOON,ioos:station:TCOON:170:1,2016-01-12T14:30:00Z,27.2970,-97.4049,0.0,33.3,1111122 
TCOON,ioos:station:TCOON:170:1,2016-01-12T19:00:00Z,27.2970,-97.4049,0.0,33.4,1111122 
TCOON,ioos:station:TCOON:170:1,2016-01-12T20:00:00Z,27.2970,-97.4049,0.0,33.7,1111122 
TCOON,ioos:station:TCOON:170:1,2016-01-13T00:30:00Z,27.2970,-97.4049,0.0,33.6,1111122 
TCOON,ioos:station:TCOON:170:1,2016-01-13T03:30:00Z,27.2970,-97.4049,0.0,33.4,1111122 
TCOON,ioos:station:TCOON:170:1,2016-01-13T06:30:00Z,27.2970,-97.4049,0.0,33.4,1111122 
TCOON,ioos:station:TCOON:170:1,2016-01-13T07:30:00Z,27.2970,-97.4049,0.0,33.5,1111122 
TCOON,ioos:station:TCOON:170:1,2016-01-13T09:30:00Z,27.2970,-97.4049,0.0,33.5,1111122 
TCOON,ioos:station:TCOON:170:1,2016-01-13T11:30:00Z,27.2970,-97.4049,0.0,33.5,1111122 
TCOON,ioos:station:TCOON:170:1,2016-01-13T12:30:00Z,27.2970,-97.4049,0.0,33.5,1111122 
TCOON,ioos:station:TCOON:170:1,2016-01-13T13:30:00Z,27.2970,-97.4049,0.0,33.4,1111122 
TCOON,ioos:station:TCOON:170:1,2016-01-13T14:30:00Z,27.2970,-97.4049,0.0,33.4,1111122 
TCOON,ioos:station:TCOON:170:1,2016-01-13T15:30:00Z,27.2970,-97.4049,0.0,33.5,1111122 
TCOON,ioos:station:TCOON:170:1,2016-01-13T17:30:00Z,27.2970,-97.4049,0.0,33.5,1111122 
TCOON,ioos:station:TCOON:170:1,2016-01-13T18:30:00Z,27.2970,-97.4049,0.0,33.7,1111122 
TCOON,ioos:station:TCOON:170:1,2016-01-13T19:30:00Z,27.2970,-97.4049,0.0,33.9,1111122 
TCOON,ioos:station:TCOON:170:1,2016-01-13T20:30:00Z,27.2970,-97.4049,0.0,33.9,1111122 
TCOON,ioos:station:TCOON:170:1,2016-01-13T21:30:00Z,27.2970,-97.4049,0.0,33.9,1111122 
TCOON,ioos:station:TCOON:170:1,2016-01-13T22:30:00Z,27.2970,-97.4049,0.0,33.9,1111122 
TCOON,ioos:station:TCOON:170:1,2016-01-14T00:00:00Z,27.2970,-97.4049,0.0,34.0,1111122 
TCOON,ioos:station:TCOON:170:1,2016-01-14T00:30:00Z,27.2970,-97.4049,0.0,34.1,1111122 
TCOON,ioos:station:TCOON:170:1,2016-01-14T01:30:00Z,27.2970,-97.4049,0.0,34.1,1111122 
TCOON,ioos:station:TCOON:170:1,2016-01-14T02:30:00Z,27.2970,-97.4049,0.0,34.0,1111122 
TCOON,ioos:station:TCOON:170:1,2016-01-14T03:30:00Z,27.2970,-97.4049,0.0,34.2,1111122 
TCOON,ioos:station:TCOON:170:1,2016-01-14T04:30:00Z,27.2970,-97.4049,0.0,34.2,1111122 
TCOON,ioos:station:TCOON:170:1,2016-01-14T05:30:00Z,27.2970,-97.4049,0.0,34.2,1111122 
TCOON,ioos:station:TCOON:170:1,2016-01-14T07:30:00Z,27.2970,-97.4049,0.0,34.0,1111122 
TCOON,ioos:station:TCOON:170:1,2016-01-14T10:30:00Z,27.2970,-97.4049,0.0,34.2,1111122 
TCOON,ioos:station:TCOON:170:1,2016-01-14T11:30:00Z,27.2970,-97.4049,0.0,34.1,1111122 
TCOON,ioos:station:TCOON:170:1,2016-01-14T13:30:00Z,27.2970,-97.4049,0.0,34.2,1111122 
TCOON,ioos:station:TCOON:170:1,2016-01-14T14:30:00Z,27.2970,-97.4049,0.0,34.1,1111122 
TCOON,ioos:station:TCOON:170:1,2016-01-14T15:30:00Z,27.2970,-97.4049,0.0,34.1,1111122 
TCOON,ioos:station:TCOON:170:1,2016-01-14T16:30:00Z,27.2970,-97.4049,0.0,34.2,1111122 
TCOON,ioos:station:TCOON:170:1,2016-01-14T17:30:00Z,27.2970,-97.4049,0.0,34.2,1111122 
TCOON,ioos:station:TCOON:170:1,2016-01-14T18:30:00Z,27.2970,-97.4049,0.0,34.2,1111122 
TCOON,ioos:station:TCOON:170:1,2016-01-14T19:30:00Z,27.2970,-97.4049,0.0,34.2,1111122 
TCOON,ioos:station:TCOON:170:1,2016-01-14T20:30:00Z,27.2970,-97.4049,0.0,34.2,1111122 
TCOON,ioos:station:TCOON:170:1,2016-01-14T21:30:00Z,27.2970,-97.4049,0.0,34.3,1111122 
TCOON,ioos:station:TCOON:170:1,2016-01-14T22:30:00Z,27.2970,-97.4049,0.0,34.2,1111122 
TCOON,ioos:station:TCOON:170:1,2016-01-15T00:30:00Z,27.2970,-97.4049,0.0,34.2,1111122 
TCOON,ioos:station:TCOON:170:1,2016-01-15T04:30:00Z,27.2970,-97.4049,0.0,34.2,1111122 
TCOON,ioos:station:TCOON:170:1,2016-01-15T05:30:00Z,27.2970,-97.4049,0.0,34.2,1111122 
TCOON,ioos:station:TCOON:170:1,2016-01-15T06:30:00Z,27.2970,-97.4049,0.0,34.2,1111122 
TCOON,ioos:station:TCOON:170:1,2016-01-15T07:30:00Z,27.2970,-97.4049,0.0,34.2,1111122 
TCOON,ioos:station:TCOON:170:1,2016-01-15T08:30:00Z,27.2970,-97.4049,0.0,34.2,1111122 
TCOON,ioos:station:TCOON:170:1,2016-01-15T09:30:00Z,27.2970,-97.4049,0.0,34.2,1111122 
TCOON,ioos:station:TCOON:170:1,2016-01-15T10:30:00Z,27.2970,-97.4049,0.0,34.2,1111122 
TCOON,ioos:station:TCOON:170:1,2016-01-15T14:30:00Z,27.2970,-97.4049,0.0,34.2,1111122 
TCOON,ioos:station:TCOON:170:1,2016-01-15T15:30:00Z,27.2970,-97.4049,0.0,34.2,1111122 
TCOON,ioos:station:TCOON:170:1,2016-01-15T16:30:00Z,27.2970,-97.4049,0.0,34.2,1111122 
TCOON,ioos:station:TCOON:170:1,2016-01-15T17:30:00Z,27.2970,-97.4049,0.0,34.2,1111122 
TCOON,ioos:station:TCOON:170:1,2016-01-15T18:30:00Z,27.2970,-97.4049,0.0,34.2,1111122 
TCOON,ioos:station:TCOON:170:1,2016-01-15T19:30:00Z,27.2970,-97.4049,0.0,34.2,1111122 
TCOON,ioos:station:TCOON:170:1,2016-01-15T20:30:00Z,27.2970,-97.4049,0.0,34.2,1111122 
TCOON,ioos:station:TCOON:170:1,2016-01-15T22:30:00Z,27.2970,-97.4049,0.0,34.2,1111122 
TCOON,ioos:station:TCOON:170:1,2016-01-16T00:30:00Z,27.2970,-97.4049,0.0,34.2,1111122 
TCOON,ioos:station:TCOON:170:1,2016-01-16T02:30:00Z,27.2970,-97.4049,0.0,34.2,1111122 
TCOON,ioos:station:TCOON:170:1,2016-01-16T05:30:00Z,27.2970,-97.4049,0.0,34.2,1111122 
TCOON,ioos:station:TCOON:170:1,2016-01-16T12:30:00Z,27.2970,-97.4049,0.0,34.2,1111122 
TCOON,ioos:station:TCOON:170:1,2016-01-16T13:30:00Z,27.2970,-97.4049,0.0,34.2,1111122 
TCOON,ioos:station:TCOON:170:1,2016-01-16T15:30:00Z,27.2970,-97.4049,0.0,34.2,1111122 
TCOON,ioos:station:TCOON:170:1,2016-01-16T16:30:00Z,27.2970,-97.4049,0.0,34.3,1111122 
TCOON,ioos:station:TCOON:170:1,2016-01-16T18:30:00Z,27.2970,-97.4049,0.0,34.2,1111122 
TCOON,ioos:station:TCOON:170:1,2016-01-16T19:30:00Z,27.2970,-97.4049,0.0,34.2,1111122 
TCOON,ioos:station:TCOON:170:1,2016-01-16T20:30:00Z,27.2970,-97.4049,0.0,34.3,1111122 
TCOON,ioos:station:TCOON:170:1,2016-01-16T21:30:00Z,27.2970,-97.4049,0.0,34.3,1111122 
TCOON,ioos:station:TCOON:170:1,2016-01-16T23:30:00Z,27.2970,-97.4049,0.0,34.4,1111122 
TCOON,ioos:station:TCOON:170:1,2016-01-17T00:30:00Z,27.2970,-97.4049,0.0,34.3,1111122 
TCOON,ioos:station:TCOON:170:1,2016-01-17T02:30:00Z,27.2970,-97.4049,0.0,34.3,1111122 
TCOON,ioos:station:TCOON:170:1,2016-01-17T03:30:00Z,27.2970,-97.4049,0.0,34.3,1111122 
TCOON,ioos:station:TCOON:170:1,2016-01-17T04:30:00Z,27.2970,-97.4049,0.0,34.4,1111122 
TCOON,ioos:station:TCOON:170:1,2016-01-17T05:30:00Z,27.2970,-97.4049,0.0,34.1,1111122 
TCOON,ioos:station:TCOON:170:1,2016-01-17T08:30:00Z,27.2970,-97.4049,0.0,33.7,1111122 
TCOON,ioos:station:TCOON:170:1,2016-01-17T10:30:00Z,27.2970,-97.4049,0.0,33.7,1111122 
TCOON,ioos:station:TCOON:170:1,2016-01-17T11:30:00Z,27.2970,-97.4049,0.0,33.6,1111122 